{"data":{"norad_id":59259,"intl_designator":"2024-050F","name":"STARLINK-31506","alt_names":[],"object_type":"PAYLOAD","status":"ACTIVE","operator":null,"country":"US","launch_date":"2024-03-19","launch_site_code":"AFWTR","launch_vehicle":null,"mission":null,"orbit_class":"UNKNOWN","rcs_meters":null,"size_class":null,"mass_kg":null,"dimensions":null,"purposes":["comms"],"wikipedia_slug":null,"has_3d_model":false,"image_url":null,"decayed_at":null,"tle_current":{"epoch":"2026-09-21T18:58:56.059104Z","epoch_age_seconds":50737,"freshness":"FRESH","line1":"1 59259U 24050F   26264.79092661  .00009428  00000+0  28967-3 0  9998","line2":"2 59259  53.1601 349.3394 0001417 104.2841 255.8319 15.34417431140580","mean_motion":15.34417431,"eccentricity":0.0001417,"inclination_deg":53.1601,"raan_deg":349.3394,"arg_perigee_deg":104.2841,"mean_anomaly_deg":255.8319,"bstar":0.00028967,"rev_number":14058,"period_min":93.846691969703,"perigee_km":461.68209237132,"apogee_km":463.62077181297,"semimajor_km":6840.7884320921,"source":"CELESTRAK","updated_at":"2026-09-22T09:00:48.871805Z"}}}